Regional Weather Roundup
Issued by NWS Sioux Falls, SD

Home | Current Version | Previous Version | Text Only | Print | Product List | Glossary Off
Versions: 1 2 3 4 5 6 7 8 9 10 11 12 13 14 15 16 17 18 19 20 21 22 23 24 25 26 27 28 29 30 31 32 33 34 35 36 37 38 39 40 41 42 43 44 45 46 47 48 49 50

000
ASUS43 KFSD 251302
RWRFSD

WEATHER ROUNDUP FOR SE SOUTH DAKOTA/SW MINNESOTA/NW IOWA
NATIONAL WEATHER SERVICE SIOUX FALLS SD
800 AM CDT MON SEP 25 2017

NOTE: "FAIR" INDICATES FEW OR NO CLOUDS BELOW 12,000 FEET WITH NO
SIGNIFICANT WEATHER AND OR OBSTRUCTIONS TO VISIBILITY.


SDZ038>040-050-052>070-251400-
SOUTHEAST SOUTH DAKOTA

CITY           SKY/WX    TMP DP  RH WIND       PRES   REMARKS
BROOKINGS      LGT RAIN  49  48  97 N12       30.05R
CHAMBERLAIN    CLOUDY    50  48  92 N14G21    30.09F
HURON          CLOUDY    50  47  89 N12       30.08S
MADISON        LGT RAIN  48  48 100 N13G18    30.04R
MITCHELL       CLOUDY    50  49  96 N13       30.06R
SIOUX FALLS    LGT RAIN  53  52  96 NE8       30.02R
WINNER         LGT RAIN  48  47  96 N15       30.07F
YANKTON        LGT RAIN  53  52  96 N9        30.02F
$$

MNZ071-072-080-081-089-090-097-098-251400-
SOUTHWEST MINNESOTA

CITY           SKY/WX    TMP DP  RH WIND       PRES   REMARKS
FAIRMONT       LGT RAIN  54  53  97 N9        30.01S
JACKSON        LGT SNOW  52  52 100 CALM      30.02R
LUVERNE        RAIN      52  48  87 NE8       30.03R
MARSHALL       LGT RAIN  50  49  96 N9        30.05
MONTEVIDEO     LGT RAIN  52  50  93 N10       30.04F
PIPESTONE      LGT RAIN  52  48  87 E7        30.02S
REDWOOD FALLS  LGT RAIN  52  50  93 NW9       30.04R
TRACY          DRIZZLE   51  51  99 N9        30.05S
WORTHINGTON    LGT RAIN  52  51  97 N12G17    30.02F FOG
$$

IAZ001>003-012>014-020>022-031-032-NEZ013-014-SDZ071-251400-
NORTHWEST IOWA

CITY           SKY/WX    TMP DP  RH WIND       PRES   REMARKS
CHEROKEE       LGT RAIN  56  56 100 NE8       29.96F
DENISON        CLOUDY    63  63 100 NW8       29.99R
ESTHERVILLE    RAIN      53  53 100 N9        30.00S FOG
LE MARS        CLOUDY    55  55 100 N12       29.98R
ORANGE CITY    LGT RAIN  55  55 100 NE8       29.98F
SHELDON        RAIN      54  52  94 N10       29.98F
SIOUX CITY     LGT RAIN  57  57 100 N7        29.97S
SPENCER        HVY RAIN  55  54  96 N8        30.01R
STORM LAKE     LGT RAIN  57  55  94 NE12G20   29.99R
$$

ABBREVIATIONS USED IN REMARKS
   TC - TEMPERATURE IN CELSIUS
  WCI - WIND CHILL INDEX
   HX - HEAT INDEX
  VSB - VISIBILITY





USA.gov is the U.S. government's official web portal to all federal, state and local government web resources and services.